QPF
0.02 0.01 0.01 0.01 0.01 0.01 0.01 0.02 0.03 0.02 0.02 0.02 0.02 0.01 0.01 0.02 0.02 0.02 0.02 0.02 0.01 0.01 0.01 0.01 0.01 0.01 0.01 0.01 0.01 0.01 0.01 0.01 0.01 0.01 0.00 0.01 0.01 0.01
0.03 0.02 0.01 0.01 0.01 0.01 0.01 0.01 0.01 0.02 0.02 0.02 0.02 0.02 0.02 0.02 0.03 0.03 0.02 0.02 0.01 0.01 0.01 0.01 0.01 0.01 0.01 0.01 0.01 0.01 0.01 0.01 0.01 0.01 0.01 0.01 0.01 0.02
0.04 0.03 0.02 0.02 0.01 0.01 0.01 0.01 0.01 0.01 0.01 0.01 0.01 0.02 0.02 0.02 0.02 0.02 0.02 0.02 0.01 0.01 0.01 0.01 0.01 0.01 0.01 0.01 0.01 0.01 0.01 0.01 0.01 0.02 0.02 0.02 0.02 0.02
0.04 0.04 0.02 0.01 0.01 0.00 0.00 0.00 0.00 0.01 0.01 0.01 0.01 0.02 0.02 0.02 0.02 0.01 0.01 0.01 0.01 0.01 0.01 0.01 0.01 0.01 0.01 0.02 0.02 0.02 0.02 0.02 0.02 0.02 0.02 0.02 0.03 0.03
0.02 0.03 0.02 0.01 0.00 0.00 0.00 0.00 0.00 0.00 0.01 0.01 0.01 0.01 0.02 0.02 0.02 0.02 0.01 0.01 0.01 0.01 0.01 0.02 0.02 0.02 0.02 0.01 0.01 0.01 0.02 0.02 0.02 0.03 0.03 0.02 0.02 0.02
0.01 0.02 0.02 0.01 0.00 0.00 0.00 0.00 0.00 0.00 0.00 0.01 0.01 0.01 0.01 0.02 0.02 0.02 0.02 0.01 0.01 0.01 0.02 0.02 0.02 0.02 0.02 0.02 0.02 0.01 0.02 0.02 0.02 0.02 0.02 0.02 0.03 0.02
0.01 0.01 0.01 0.01 0.01 0.00 0.00 0.01 0.01 0.01 0.01 0.01 0.01 0.01 0.01 0.02 0.02 0.02 0.02 0.02 0.01 0.01 0.02 0.02 0.02 0.02 0.02 0.03 0.03 0.02 0.02 0.03 0.03 0.03 0.03 0.03 0.02 0.02
0.00 0.01 0.01 0.01 0.01 0.01 0.01 0.01 0.01 0.01 0.02 0.02 0.01 0.01 0.01 0.01 0.02 0.02 0.03 0.03 0.03 0.02 0.02 0.02 0.02 0.02 0.02 0.02 0.02 0.03 0.03 0.03 0.03 0.03 0.03 0.03 0.02 0.02
0.00 0.01 0.01 0.01 0.01 0.01 0.01 0.01 0.01 0.01 0.02 0.02 0.02 0.01 0.01 0.01 0.02 0.03 0.03 0.03 0.03 0.02 0.02 0.02 0.02 0.02 0.02 0.02 0.02 0.02 0.02 0.02 0.02 0.02 0.02 0.02 0.02 0.02
0.00 0.00 0.00 0.01 0.01 0.01 0.01 0.01 0.01 0.01 0.01 0.01 0.01 0.01 0.01 0.01 0.02 0.02 0.03 0.04 0.03 0.02 0.03 0.03 0.01 0.01 0.01 0.01 0.02 0.01 0.01 0.01 0.01 0.01 0.02 0.02 0.02 0.02
0.00 0.00 0.00 0.00 0.01 0.01 0.01 0.02 0.01 0.01 0.01 0.01 0.01 0.01 0.01 0.01 0.02 0.03 0.03 0.04 0.04 0.03 0.02 0.02 0.02 0.01 0.01 0.01 0.01 0.01 0.01 0.01 0.01 0.01 0.01 0.01 0.01 0.01
0.00 0.00 0.00 0.00 0.01 0.01 0.01 0.02 0.02 0.02 0.01 0.01 0.01 0.01 0.01 0.01 0.01 0.02 0.03 0.04 0.04 0.04 0.02 0.02 0.02 0.02 0.02 0.00 0.00 0.00 0.00 0.00 0.00 0.01 0.01 0.01 0.01 0.01
0.00 0.00 0.00 0.00 0.01 0.01 0.01 0.01 0.02 0.02 0.02 0.02 0.01 0.01 0.01 0.00 0.01 0.01 0.02 0.03 0.03 0.03 0.02 0.03 0.04 0.03 0.03 0.02 0.01 0.00 0.00 0.00 0.00 0.01 0.01 0.01 0.01 0.01
0.00 0.00 0.00 0.01 0.01 0.01 0.01 0.02 0.02 0.03 0.03 0.02 0.01 0.01 0.01 0.01 0.01 0.01 0.01 0.02 0.02 0.02 0.02 0.03 0.04 0.04 0.04 0.04 0.02 0.01 0.00 0.00 0.00 0.01 0.01 0.01 0.01 0.01
0.01 0.01 0.01 0.01 0.01 0.01 0.01 0.01 0.02 0.02 0.02 0.02 0.02 0.01 0.01 0.01 0.01 0.01 0.02 0.02 0.02 0.02 0.02 0.02 0.03 0.03 0.04 0.04 0.03 0.01 0.01 0.01 0.00 0.01 0.01 0.01 0.01 0.01
0.01 0.01 0.01 0.01 0.01 0.01 0.01 0.01 0.01 0.01 0.02 0.02 0.02 0.01 0.01 0.01 0.01 0.02 0.02 0.02 0.03 0.03 0.02 0.02 0.02 0.03 0.03 0.03 0.02 0.02 0.01 0.01 0.01 0.01 0.01 0.01 0.01 0.01
0.02 0.02 0.02 0.01 0.01 0.01 0.01 0.01 0.01 0.01 0.01 0.01 0.02 0.02 0.02 0.02 0.01 0.02 0.02 0.03 0.03 0.02 0.02 0.02 0.02 0.02 0.02 0.02 0.03 0.02 0.02 0.01 0.01 0.01 0.01 0.01 0.01 0.01
0.02 0.02 0.02 0.01 0.01 0.01 0.01 0.01 0.01 0.01 0.01 0.01 0.01 0.02 0.02 0.02 0.02 0.02 0.03 0.03 0.03 0.03 0.02 0.02 0.02 0.03 0.03 0.02 0.01 0.02 0.02 0.01 0.01 0.01 0.01 0.02 0.01 0.01
0.02 0.02 0.01 0.01 0.02 0.02 0.02 0.01 0.01 0.01 0.01 0.01 0.01 0.02 0.02 0.02 0.02 0.02 0.03 0.03 0.03 0.03 0.02 0.02 0.03 0.04 0.04 0.02 0.01 0.01 0.02 0.02 0.01 0.01 0.01 0.02 0.02 0.01
0.01 0.01 0.01 0.01 0.02 0.01 0.01 0.01 0.01 0.01 0.01 0.02 0.02 0.02 0.02 0.03 0.03 0.02 0.02 0.03 0.03 0.03 0.02 0.02 0.02 0.03 0.04 0.03 0.02 0.02 0.02 0.02 0.02 0.02 0.02 0.02 0.02 0.02
0.01 0.01 0.01 0.01 0.01 0.01 0.01 0.01 0.01 0.01 0.01 0.02 0.02 0.02 0.02 0.03 0.03 0.02 0.02 0.03 0.03 0.03 0.03 0.02 0.02 0.02 0.03 0.04 0.04 0.02 0.02 0.02 0.02 0.03 0.04 0.04 0.03 0.02
0.01 0.01 0.01 0.01 0.02 0.01 0.01 0.01 0.01 0.01 0.01 0.02 0.02 0.02 0.02 0.02 0.02 0.02 0.03 0.03 0.02 0.02 0.02 0.02 0.02 0.02 0.03 0.04 0.03 0.02 0.01 0.02 0.02 0.02 0.03 0.04 0.04 0.03
0.02 0.01 0.01 0.02 0.02 0.02 0.02 0.02 0.02 0.02 0.01 0.02 0.02 0.02 0.02 0.02 0.02 0.02 0.02 0.03 0.02 0.02 0.02 0.02 0.02 0.02 0.03 0.03 0.02 0.02 0.02 0.02 0.02 0.02 0.03 0.02 0.02 0.02
MSLP
1018.23 1018.61 1018.97 1019.31 1019.62 1019.90 1020.16 1020.42 1020.71 1021.02 1021.36 1021.73 1022.10 1022.46 1022.79 1023.07 1023.29 1023.46 1023.61 1023.73 1023.87 1024.02 1024.19 1024.38 1024.58 1024.76 1024.92 1025.04 1025.11 1025.14 1025.14 1025.11 1025.08 1025.04 1024.99 1024.95 1024.91 1024.86
1018.39 1018.71 1019.01 1019.29 1019.54 1019.77 1019.99 1020.22 1020.48 1020.76 1021.09 1021.43 1021.80 1022.15 1022.48 1022.77 1023.02 1023.23 1023.42 1023.59 1023.76 1023.95 1024.15 1024.36 1024.57 1024.77 1024.94 1025.07 1025.16 1025.21 1025.23 1025.23 1025.22 1025.21 1025.20 1025.18 1025.15 1025.11
1018.54 1018.81 1019.07 1019.30 1019.52 1019.72 1019.91 1020.12 1020.35 1020.61 1020.91 1021.24 1021.58 1021.92 1022.24 1022.54 1022.80 1023.03 1023.24 1023.44 1023.63 1023.84 1024.06 1024.27 1024.49 1024.68 1024.85 1024.99 1025.10 1025.17 1025.22 1025.27 1025.30 1025.32 1025.35 1025.36 1025.36 1025.34
1018.63 1018.89 1019.12 1019.34 1019.53 1019.71 1019.90 1020.10 1020.31 1020.56 1020.84 1021.14 1021.45 1021.77 1022.07 1022.36 1022.62 1022.85 1023.07 1023.27 1023.48 1023.69 1023.90 1024.11 1024.31 1024.51 1024.67 1024.81 1024.93 1025.03 1025.11 1025.19 1025.27 1025.35 1025.42 1025.48 1025.52 1025.53
1018.66 1018.91 1019.14 1019.36 1019.55 1019.74 1019.93 1020.13 1020.34 1020.58 1020.83 1021.10 1021.39 1021.67 1021.95 1022.21 1022.45 1022.67 1022.88 1023.08 1023.28 1023.48 1023.68 1023.87 1024.06 1024.23 1024.39 1024.53 1024.65 1024.77 1024.89 1025.01 1025.14 1025.27 1025.40 1025.51 1025.60 1025.65
1018.63 1018.89 1019.13 1019.35 1019.57 1019.78 1019.98 1020.18 1020.39 1020.61 1020.84 1021.09 1021.33 1021.58 1021.82 1022.05 1022.26 1022.47 1022.66 1022.84 1023.03 1023.21 1023.39 1023.56 1023.72 1023.87 1024.01 1024.14 1024.27 1024.40 1024.54 1024.70 1024.88 1025.06 1025.25 1025.42 1025.57 1025.67
1018.57 1018.83 1019.09 1019.33 1019.57 1019.80 1020.01 1020.22 1020.42 1020.62 1020.83 1021.03 1021.23 1021.43 1021.63 1021.83 1022.01 1022.19 1022.36 1022.54 1022.70 1022.86 1023.02 1023.17 1023.30 1023.43 1023.55 1023.67 1023.79 1023.93 1024.09 1024.28 1024.49 1024.72 1024.96 1025.19 1025.40 1025.57
1018.52 1018.78 1019.05 1019.31 1019.56 1019.80 1020.02 1020.22 1020.41 1020.58 1020.74 1020.90 1021.05 1021.21 1021.36 1021.52 1021.68 1021.83 1021.99 1022.15 1022.30 1022.45 1022.59 1022.71 1022.83 1022.93 1023.03 1023.14 1023.25 1023.39 1023.56 1023.76 1024.00 1024.26 1024.55 1024.83 1025.10 1025.33
1018.51 1018.77 1019.04 1019.30 1019.56 1019.79 1020.00 1020.18 1020.34 1020.47 1020.59 1020.69 1020.79 1020.90 1021.01 1021.13 1021.26 1021.40 1021.54 1021.69 1021.83 1021.97 1022.10 1022.21 1022.31 1022.40 1022.48 1022.57 1022.67 1022.80 1022.97 1023.18 1023.42 1023.71 1024.03 1024.35 1024.67 1024.96
1018.57 1018.83 1019.08 1019.34 1019.59 1019.80 1019.98 1020.13 1020.24 1020.32 1020.38 1020.43 1020.48 1020.53 1020.60 1020.69 1020.80 1020.92 1021.05 1021.19 1021.33 1021.46 1021.58 1021.68 1021.77 1021.85 1021.92 1021.99 1022.08 1022.20 1022.36 1022.56 1022.82 1023.11 1023.44 1023.80 1024.15 1024.50
1018.73 1018.96 1019.20 1019.44 1019.66 1019.84 1019.98 1020.08 1020.14 1020.16 1020.17 1020.16 1020.15 1020.16 1020.19 1020.25 1020.33 1020.44 1020.56 1020.69 1020.82 1020.94 1021.05 1021.15 1021.23 1021.29 1021.35 1021.42 1021.50 1021.61 1021.76 1021.95 1022.20 1022.50 1022.83 1023.20 1023.59 1023.97
1018.95 1019.17 1019.39 1019.59 1019.77 1019.91 1020.01 1020.06 1020.06 1020.03 1019.98 1019.92 1019.86 1019.83 1019.82 1019.85 1019.90 1019.98 1020.09 1020.20 1020.31 1020.42 1020.52 1020.61 1020.68 1020.74 1020.79 1020.86 1020.94 1021.04 1021.18 1021.37 1021.61 1021.89 1022.23 1022.60 1023.00 1023.41
1019.22 1019.42 1019.60 1019.77 1019.91 1020.01 1020.06 1020.06 1020.02 1019.94 1019.84 1019.73 1019.64 1019.56 1019.52 1019.51 1019.53 1019.58 1019.65 1019.73 1019.82 1019.91 1019.98 1020.05 1020.12 1020.17 1020.23 1020.29 1020.37 1020.48 1020.63 1020.81 1021.04 1021.32 1021.65 1022.02 1022.42 1022.84
1019.49 1019.66 1019.82 1019.95 1020.06 1020.11 1020.12 1020.08 1019.99 1019.87 1019.74 1019.59 1019.46 1019.35 1019.27 1019.22 1019.21 1019.21 1019.24 1019.28 1019.33 1019.38 1019.43 1019.48 1019.53 1019.58 1019.64 1019.71 1019.81 1019.93 1020.08 1020.28 1020.51 1020.79 1021.11 1021.47 1021.87 1022.29
1019.70 1019.84 1019.97 1020.08 1020.14 1020.16 1020.14 1020.06 1019.95 1019.80 1019.63 1019.46 1019.30 1019.16 1019.04 1018.95 1018.88 1018.84 1018.82 1018.81 1018.81 1018.81 1018.83 1018.85 1018.89 1018.94 1019.01 1019.11 1019.22 1019.37 1019.55 1019.75 1020.00 1020.28 1020.60 1020.95 1021.34 1021.75
1019.82 1019.94 1020.03 1020.10 1020.14 1020.13 1020.07 1019.97 1019.83 1019.66 1019.47 1019.28 1019.09 1018.91 1018.75 1018.62 1018.51 1018.41 1018.33 1018.26 1018.22 1018.18 1018.17 1018.18 1018.21 1018.27 1018.36 1018.48 1018.63 1018.81 1019.01 1019.25 1019.51 1019.80 1020.11 1020.46 1020.83 1021.23
1019.82 1019.90 1019.96 1020.00 1020.01 1019.97 1019.88 1019.76 1019.60 1019.40 1019.19 1018.98 1018.76 1018.55 1018.35 1018.17 1018.01 1017.86 1017.73 1017.62 1017.53 1017.47 1017.44 1017.44 1017.48 1017.57 1017.68 1017.84 1018.03 1018.25 1018.50 1018.76 1019.04 1019.34 1019.66 1020.00 1020.36 1020.74
1019.69 1019.74 1019.76 1019.77 1019.73 1019.66 1019.55 1019.40 1019.21 1018.99 1018.76 1018.51 1018.26 1018.02 1017.78 1017.55 1017.35 1017.16 1016.99 1016.85 1016.74 1016.67 1016.65 1016.67 1016.74 1016.86 1017.02 1017.23 1017.47 1017.73 1018.02 1018.31 1018.62 1018.93 1019.25 1019.59 1019.93 1020.29
1019.46 1019.47 1019.45 1019.41 1019.34 1019.23 1019.08 1018.89 1018.67 1018.42 1018.15 1017.86 1017.58 1017.29 1017.01 1016.75 1016.51 1016.29 1016.11 1015.96 1015.86 1015.81 1015.81 1015.87 1015.99 1016.17 1016.39 1016.66 1016.95 1017.26 1017.59 1017.91 1018.24 1018.57 1018.89 1019.22 1019.55 1019.89
1019.17 1019.13 1019.07 1018.98 1018.86 1018.70 1018.50 1018.27 1018.00 1017.70 1017.38 1017.05 1016.72 1016.39 1016.07 1015.78 1015.51 1015.29 1015.10 1014.97 1014.90 1014.90 1014.96 1015.09 1015.28 1015.52 1015.82 1016.15 1016.50 1016.86 1017.22 1017.58 1017.93 1018.27 1018.59 1018.92 1019.25 1019.58
1018.86 1018.77 1018.65 1018.51 1018.33 1018.11 1017.86 1017.56 1017.24 1016.88 1016.51 1016.12 1015.74 1015.37 1015.01 1014.69 1014.42 1014.19 1014.03 1013.94 1013.92 1013.98 1014.12 1014.33 1014.61 1014.94 1015.30 1015.70 1016.11 1016.52 1016.92 1017.30 1017.67 1018.02 1018.36 1018.69 1019.02 1019.34
1018.56 1018.41 1018.24 1018.03 1017.79 1017.51 1017.19 1016.83 1016.44 1016.02 1015.59 1015.15 1014.71 1014.29 1013.91 1013.57 1013.29 1013.08 1012.95 1012.91 1012.96 1013.10 1013.32 1013.62 1013.98 1014.40 1014.85 1015.31 1015.78 1016.23 1016.66 1017.07 1017.46 1017.83 1018.18 1018.52 1018.86 1019.20
1018.29 1018.09 1017.85 1017.58 1017.27 1016.93 1016.54 1016.11 1015.66 1015.18 1014.68 1014.19 1013.71 1013.25 1012.84 1012.49 1012.22 1012.03 1011.94 1011.95 1012.07 1012.28 1012.59 1012.98 1013.42 1013.91 1014.43 1014.95 1015.47 1015.96 1016.43 1016.87 1017.28 1017.67 1018.05 1018.42 1018.78 1019.14
Thickness
5554 5554 5553 5552 5550 5549 5547 5545 5542 5541 5542 5542 5542 5542 5542 5541 5540 5539 5538 5537 5536 5535 5534 5532 5531 5530 5529 5528 5527 5526 5525 5524 5523 5523 5523 5523 5523 5523
5544 5543 5542 5541 5540 5538 5536 5534 5533 5532 5531 5533 5530 5530 5529 5528 5526 5526 5525 5524 5522 5521 5520 5519 5518 5518 5517 5516 5514 5513 5512 5511 5510 5510 5510 5509 5510 5509
5533 5532 5531 5530 5528 5527 5525 5523 5521 5520 5519 5520 5519 5517 5516 5514 5513 5512 5511 5511 5509 5507 5506 5506 5505 5504 5503 5502 5500 5499 5498 5497 5497 5496 5496 5496 5496 5496
5522 5521 5521 5519 5517 5515 5513 5511 5509 5507 5505 5506 5506 5504 5502 5501 5499 5498 5498 5497 5496 5494 5493 5492 5491 5490 5489 5488 5487 5485 5484 5484 5483 5482 5482 5482 5482 5482
5512 5510 5509 5507 5505 5503 5501 5499 5497 5495 5493 5491 5492 5491 5489 5488 5486 5485 5485 5484 5483 5481 5480 5479 5477 5476 5474 5473 5472 5471 5471 5471 5470 5468 5468 5467 5467 5467
5501 5499 5497 5495 5494 5491 5489 5486 5484 5481 5479 5477 5478 5478 5476 5475 5472 5471 5471 5470 5469 5467 5466 5465 5464 5462 5461 5459 5459 5458 5457 5456 5455 5455 5454 5454 5453 5454
5488 5486 5485 5483 5482 5479 5477 5474 5471 5468 5466 5464 5464 5463 5462 5460 5458 5456 5455 5456 5456 5454 5453 5453 5451 5450 5448 5447 5445 5445 5444 5443 5442 5442 5441 5440 5440 5440
5475 5474 5472 5470 5468 5467 5466 5463 5460 5456 5453 5451 5450 5449 5449 5446 5444 5442 5440 5440 5442 5443 5438 5440 5438 5437 5436 5434 5433 5432 5431 5431 5430 5429 5428 5427 5427 5427
5463 5461 5459 5458 5455 5453 5452 5451 5449 5446 5443 5440 5438 5438 5436 5434 5431 5429 5426 5425 5427 5428 5424 5426 5425 5424 5424 5422 5421 5420 5419 5419 5418 5417 5416 5416 5415 5416
5451 5448 5447 5445 5443 5440 5438 5437 5435 5434 5431 5429 5428 5426 5424 5421 5419 5417 5414 5414 5415 5414 5411 5410 5412 5411 5412 5411 5409 5408 5407 5407 5406 5405 5405 5405 5404 5405
5439 5437 5435 5433 5432 5428 5425 5423 5422 5421 5419 5416 5415 5413 5412 5410 5407 5404 5402 5400 5402 5403 5399 5396 5398 5398 5400 5400 5399 5397 5396 5395 5394 5394 5393 5393 5394 5394
5427 5426 5424 5422 5419 5416 5412 5410 5408 5408 5406 5404 5403 5401 5399 5398 5395 5392 5390 5387 5387 5389 5389 5384 5384 5382 5386 5389 5387 5385 5384 5383 5382 5382 5382 5382 5382 5382
5414 5413 5411 5410 5407 5404 5401 5398 5397 5395 5394 5392 5390 5389 5387 5385 5383 5381 5378 5376 5375 5376 5375 5372 5370 5369 5368 5373 5375 5373 5372 5371 5371 5371 5370 5370 5370 5370
5402 5401 5399 5397 5395 5393 5390 5388 5386 5384 5381 5379 5378 5376 5375 5373 5372 5370 5369 5367 5365 5365 5363 5360 5358 5357 5356 5358 5360 5361 5360 5359 5359 5359 5359 5359 5358 5358
5390 5388 5387 5385 5382 5380 5378 5376 5374 5371 5369 5367 5367 5366 5364 5363 5361 5360 5358 5357 5356 5354 5352 5350 5348 5347 5345 5346 5347 5348 5348 5349 5348 5348 5348 5348 5348 5348
5377 5376 5374 5372 5370 5368 5367 5365 5362 5360 5359 5358 5357 5356 5354 5352 5350 5348 5347 5346 5345 5345 5342 5340 5339 5338 5337 5337 5337 5338 5338 5337 5339 5338 5338 5339 5338 5338
5365 5363 5361 5359 5357 5356 5355 5354 5352 5351 5349 5348 5346 5345 5344 5342 5340 5338 5337 5335 5334 5334 5333 5331 5330 5329 5329 5328 5329 5330 5329 5329 5328 5328 5328 5330 5330 5328
5354 5352 5351 5349 5347 5346 5345 5344 5343 5341 5340 5338 5337 5335 5334 5332 5331 5329 5327 5326 5325 5324 5323 5322 5320 5320 5321 5322 5322 5322 5321 5320 5320 5319 5318 5319 5322 5321
5344 5342 5341 5341 5339 5338 5337 5335 5334 5333 5331 5329 5328 5326 5324 5323 5321 5320 5318 5317 5316 5315 5314 5313 5311 5311 5312 5315 5316 5314 5312 5312 5311 5311 5310 5310 5312 5315
5335 5334 5333 5333 5331 5330 5328 5327 5326 5324 5322 5321 5319 5318 5316 5314 5313 5312 5311 5310 5309 5308 5307 5305 5304 5303 5304 5305 5306 5306 5304 5304 5303 5304 5304 5304 5305 5306
5326 5326 5325 5324 5323 5322 5320 5319 5317 5316 5315 5313 5311 5310 5308 5306 5306 5305 5304 5304 5302 5301 5301 5300 5299 5298 5296 5296 5297 5299 5299 5297 5296 5296 5296 5297 5298 5299
5318 5317 5317 5316 5315 5314 5312 5311 5310 5308 5307 5306 5304 5303 5301 5300 5299 5298 5298 5297 5296 5295 5294 5293 5292 5291 5290 5290 5291 5292 5293 5292 5292 5291 5290 5290 5289 5291
5310 5309 5309 5308 5307 5306 5305 5304 5303 5302 5301 5299 5298 5297 5295 5294 5294 5293 5292 5291 5290 5289 5287 5286 5286 5285 5285 5285 5285 5285 5286 5286 5287 5287 5287 5286 5285 5285